This is the latest recevied weather packets stored in our database for station/object KM5R. If no packets are shown the sender has not sent any weather packets the latest 10 day(s).
| Time | Temp. | Humidity | Pressure | Rain* | Wind** | Luminosity | Snow |
|---|---|---|---|---|---|---|---|
| 1777989003 | 21.67° C | 81% | 1008.6 hPa | 0 mm | - | 149 W/m² | - |
| 1777988699 | 21.67° C | 81% | 1008.7 hPa | 0 mm | - | 142 W/m² | - |
| 1777988395 | 21.67° C | 81% | 1008.9 hPa | 0 mm | - | 119 W/m² | - |
| 1777988094 | 21.67° C | 81% | 1008.5 hPa | 0 mm | - | 115 W/m² | - |
| 1777987794 | 21.67° C | 82% | 1008.7 hPa | 0 mm | - | 130 W/m² | - |
| 1777987491 | 21.11° C | 82% | 1008.7 hPa | 0 mm | - | 108 W/m² | - |
| 1777987189 | 21.11° C | 82% | 1008.6 hPa | 0 mm | - | 98 W/m² | - |
| 1777986885 | 21.11° C | 83% | 1008.4 hPa | 0 mm | - | 112 W/m² | - |
| 1777986583 | 21.11° C | 84% | 1008.5 hPa | 0 mm | - | 118 W/m² | - |
| 1777986281 | 20.56° C | 84% | 1008.3 hPa | 0 mm | - | 105 W/m² | - |
| 1777985978 | 20.56° C | 84% | 1008.3 hPa | 0 mm | - | 86 W/m² | - |
| 1777985676 | 20.56° C | 85% | 1008.5 hPa | 0 mm | - | 76 W/m² | - |
| 1777985372 | 20° C | 85% | 1008.4 hPa | 0 mm | - | 57 W/m² | - |
| 1777985069 | 20° C | 85% | 1008.4 hPa | 0 mm | - | 65 W/m² | - |
| 1777984765 | 20° C | 86% | 1008.3 hPa | 0 mm | - | 55 W/m² | - |
| 1777984462 | 20° C | 86% | 1008.2 hPa | 0 mm | - | 45 W/m² | - |
| 1777984157 | 20° C | 86% | 1008.1 hPa | 0 mm | - | 37 W/m² | - |
| 1777983855 | 19.44° C | 86% | 1007.9 hPa | 0 mm | - | 31 W/m² | - |
| 1777983552 | 19.44° C | 86% | 1008 hPa | 0 mm | - | 24 W/m² | - |
| 1777983249 | 19.44° C | 86% | 1008 hPa | 0 mm | - | 19 W/m² | - |
| 1777982944 | 19.44° C | 86% | 1007.6 hPa | 0 mm | - | 14 W/m² | - |
| 1777982641 | 19.44° C | 86% | 1007.8 hPa | 0 mm | - | 9 W/m² | - |
| 1777982340 | 19.44° C | 86% | 1007.6 hPa | 0 mm | - | 7 W/m² | - |
| 1777982037 | 19.44° C | 86% | 1007.5 hPa | 0 mm | - | 4 W/m² | - |
| 1777981735 | 19.44° C | 86% | 1007.8 hPa | 0 mm | - | 3 W/m² | - |
* Rain latest hour (hover to see other rain measurements)
** Current wind speed in m/s (hover to see current wind gust speed)